www.pogodaiklimat.ru

Погода и климат >> Архив погоды >> Индия >> Guna


ПОГОДА в Guna

  • Прогноз погоды в Guna
  • Монитор погоды в Guna
  • Климат города

АРХИВ ПОГОДЫ в Guna

Время (UTC), дата Ветер
(напр.,м/с)
 
Видим.   Явления Облачность Т
(С)
Тd
(С)
f
(%)
Тe
(С)
Тes
(С)
Комфортность P
(гПа)
Po
(гПа)
Тmin
(С)
Tmax
(С)
R
(мм)
R24
(мм)
S
(см)
21 8.12 В 1 4000 м ясно +14.8 +4.5 50 +16 +16 1014.6 1015.0
00 9.12 В 1 4000 м ясно +14.2 +5.3 55 +15 +15 1014.3 1014.0
03 9.12 ЮВ 1 4000 м ясно +16.0 +3.4 43 +17 +19 1016.0 1016.0 +11.8
06 9.12 В 1 4000 м ясно +23.6 +3.6 27 +23 +34 комфорт 1014.2 1014.0
09 9.12 В 1 4000 м ясно +26.2 +6.9 29 +26 +33 жарко 1010.6 1011.0
12 9.12 В 1 4000 м ясно +23.0 +8.8 40 +24 +24 комфорт 1010.4 1010.0 +26.5
15 9.12 В 1 4000 м ясно +17.8 +8.0 53 +19 +19 1012.9 1013.0
18 9.12 В 1 4000 м ясно +16.0 +5.6 50 +17 +17 1013.2 1013.0
21 9.12 штиль 0 4000 м ясно +14.4 +6.1 57 +14 +14 1011.9 1012.0
00 10.12 ЮВ 1 4000 м ясно +13.6 +6.1 60 +15 +15 1013.0 1013.0
03 10.12 СВ 2 4000 м ясно +15.4 +6.4 55 +16 +18 1014.0 1014.0 +12.4
06 10.12 В 1 4000 м ясно +23.6 +7.1 35 +24 +35 комфорт 1012.6 1013.0
09 10.12 В 1 4000 м 5/0
[Ci sp]
+25.6 +8.1 33 +26 +33 жарко 1009.6 1010.0
12 10.12 штиль 0 4000 м 5/0
[Ci sp]
+23.4 +9.9 42 +25 +25 комфорт 1009.8 1010.0 +26.0
15 10.12 штиль 0 4000 м ясно +17.2 +8.7 57 +17 +17 1013.5 1014.0
18 10.12 штиль 0 4000 м ясно +14.4 +8.5 68 +14 +14 1014.9 1015.0
21 10.12 штиль 0 4000 м ясно +13.8 +6.8 63 +14 +14 1013.6 1014.0
00 11.12 штиль 0 4000 м ясно +12.8 +7.0 68 +12 +12 1013.8 1014.0
03 11.12 В 1 4000 м ясно +15.0 +6.8 58 +16 +19 1015.8 1016.0 +10.3
06 11.12 В 1 4000 м ясно +23.8 +6.3 32 +24 +35 комфорт 1015.0 1015.0
09 11.12 В 1 4000 м ясно +26.4 +3.5 23 +25 +33 комфорт 1011.7 1012.0
12 11.12 штиль 0 4000 м ясно +23.0 +6.7 35 +24 +24 комфорт 1011.7 1012.0 +26.6
15 11.12 В 1 4000 м ясно +18.6 +7.7 49 +20 +20 1014.7 1015.0
18 11.12 штиль 0 4000 м ясно +15.8 +8.3 61 +16 +16 1015.2 1015.0
21 11.12 штиль 0 4000 м ясно +14.8 +7.1 60 +15 +15 1014.4 1014.0
00 12.12 штиль 0 4000 м ясно +14.8 +7.1 60 +15 +15 1014.4 1014.0
03 12.12 ЮВ 1 4000 м 5/0
[Ac trans Ci sp]
+15.4 +6.4 55 +16 +18 1015.8 1016.0 +12.0
06 12.12 З 1 4000 м 5/0
[Ac trans Ci sp]
+23.0 +7.8 38 +24 +33 комфорт 1015.4 1015.0
09 12.12 З 2 4000 м 5/0
[Ac trans Ci sp]
+22.4 +9.5 44 +24 +29 комфорт 1013.0 1013.0
12 12.12 штиль 0 4000 м 5/0
[Ac trans Ci sp]
+20.6 +10.3 52 +22 +22 комфорт 1012.9 1013.0 +23.4
15 12.12 штиль 0 4000 м 5/0
[Ac trans Ci sp]
+16.6 +9.8 64 +17 +17 1016.3 1016.0
18 12.12 штиль 0 4000 м 5/0
[Ci sp]
+14.0 +10.2 78 +14 +14 1017.3 1017.0
21 12.12 штиль 0 4000 м 5/0
[Ci sp]
+12.0 +7.5 74 +12 +12 1017.1 1017.0
00 13.12 штиль 0 4000 м 3/0
[Ci sp]
+11.0 +9.0 87 +10 +10 1017.7 1018.0
03 13.12 штиль 0 2000 м дымка ясно +13.0 +9.1 77 +13 +15 1019.4 1019.0 +9.7
06 13.12 штиль 0 4000 м ясно +21.6 +10.3 49 +23 +36 комфорт 1018.4 1018.0
09 13.12 штиль 0 4000 м ясно +23.0 +7.8 38 +24 +33 комфорт 1016.6 1016.2
12 13.12 штиль 0 4000 м 4/0
[Ac trans]
+20.0 +8.6 48 +21 +21 комфорт 1016.3 1016.0 +23.6
15 13.12 штиль 0 4000 м ясно +15.0 +9.2 68 +15 +15 1019.8 1020.0
18 13.12 штиль 0 4000 м ясно +13.4 +8.6 73 +13 +13 1020.2 1020.0
21 13.12 штиль 0 4000 м ясно +12.2 +9.0 81 +12 +12 1020.0 1020.0
00 14.12 СЗ 1 4000 м ясно +11.6 +9.2 85 +11 +11 1020.5 1021.0
03 14.12 СЗ 1 2000 м дымка ясно +12.4 +9.2 81 +12 +14 1020.1 1020.0 +10.0
06 14.12 В 2 4000 м ясно +19.0 +9.6 54 +20 +31 1021.6 1022.0
09 14.12 СВ 2 4000 м 4/0
[Ci sp]
+21.4 +8.1 42 +22 +29 комфорт 1018.2 1018.0
12 14.12 штиль 0 4000 м ясно +9.0 +7.7 92 +10 +10 1019.0 1019.0 +22.0
15 14.12 штиль 0 4000 м ясно +14.6 +7.8 64 +14 +14 1012.9 1013.0
18 14.12 штиль 0 4000 м ясно +13.0 +7.7 70 +13 +13 1021.8 1022.0
21 14.12 штиль 0 4000 м ясно +10.4 +7.5 82 +10 +10 1021.5 1022.0
00 15.12 СЗ 1 4000 м ясно +10.0 +7.5 84 +10 +10 1021.3 1021.0
03 15.12 С 1 4000 м ясно +11.6 +7.5 76 +11 +13 1023.0 1023.0 +8.6
06 15.12 СЗ 1 4000 м ясно +18.4 +5.3 42 +20 +31 1022.6 1023.0
09 15.12 штиль 0 4000 м ясно +21.6 +3.9 31 +22 +30 комфорт 1017.6 1018.0
12 15.12 СЗ 1 4000 м ясно +19.4 +3.9 36 +21 +21 комфорт 1018.5 1019.0 +22.0
15 15.12 штиль 0 4000 м ясно +14.0 +5.6 57 +14 +14 1021.8 1022.0

 

Местоположение метеостанции Guna (Madhya Pradesh, Индия): широта 24.65 долгота 77.32 высота над уровнем моря 478 м.

В архиве по умолчанию представлена погода в Guna за последнюю неделю. Архивные данные за месяц целиком и за предыдущие месяцы, начиная с января 2011 года, Вы можете получить, выбрав интересующий диапазон дат из раскрывающегося списка и нажав кнопку "Ввод!".


*Определитесь, кто Вы:
робот инопланетянин человек

Внимание! Время в таблицах - всемирное. Для получения местного времени необходимо прибавить поправку, которая в Guna равна 5.5 ч.

Смотрите также архив погоды в соседних городах и на ближайших метеорологических станциях:

Погода в Shivpuri (Madhya Pradesh, Индия) (83 км)
Погода в Rajgarh (Madhya Pradesh, Индия) (94 км)
Погода в Sheopur (Madhya Pradesh, Индия) (130 км)
Погода в Bhopal (Madhya Pradesh, Индия) (152 км)
Погода в Tikamgarh (Madhya Pradesh, Индия) (153 км)
Погода в Raisen (Madhya Pradesh, Индия) (157 км)
Погода в Jhansi (Uttar Pradesh, Индия) (158 км)
Погода в Kota (Rajasthan, Индия) (158 км)
Погода в Shajapur (Madhya Pradesh, Индия) (170 км)
Погода в Sagar (Madhya Pradesh, Индия) (170 км)

Пояснения к столбцам:

Ветер - указаны скорость ветра в м/с - средняя за 10 мин, порывы в срок и между сроками (в фигурных скобках) и направление, откуда дует ветер: С - северный, СВ - северо-восточный, В - восточный, ЮВ - юго-восточный, Ю - южный, ЮЗ - юго-западный, З - западный, СЗ - северо-западный.
Видимость - горизонтальная дальность видимости в метрах или километрах. При видимости от 1 до 10 км при отсутствии осадков обычно наблюдается дымка, при ухудшении видимости до 1 км и менее - туман. В сухую погоду видимость может ухудшаться дымом, пылью или мглою.
Явления - указаны атмосферные явления, наблюдавшиеся в срок или в последний час перед сроком; фигурными скобками обозначены явления, наблюдавшиеся между сроками (за 1-3 часа до срока); квадратными скобками обозначены град или гололедные отложения с указанием их диаметра в мм.
Облачность - указаны через наклонную черту общая и нижняя облачность в баллах и высота нижней границы облаков в метрах; квадратными скобками обозначены формы облаков: Ci - перистые, Cs - перисто-слоистые, Cc - перисто-кучевые, Ac - высококучевые, As - высокослоистые, Sc - слоисто-кучевые, Ns - слоисто-дождевые, Cu - кучевые, Cb - кучево-дождевые. Подробнее классификацию облаков см. в Атласе облаков (PDF).
T - Температура воздуха - температура, измеренная на высоте 2 м над землей.
Td - Температура точки росы - температура, при понижении до которой содержащийся в воздухе водяной пар достигнет насыщения.
f - Относительная влажность воздуха - влажноcть воздуха, измеренная на высоте 2 м над землей.
Te - Эффективная температура - температура, которую ощущает одетый по сезону человек в тени. Характеристика душности погоды. При расчете учитывается влияние влажности воздуха и скорости ветра на теплоощущения человека.
Tes - Эффективная температура на солнце - температура, которую ощущает человек, с поправкой на солнечный нагрев. Характеристика знойности погоды. Зависит от высоты солнца над горизонтом, облачности и скорости ветра. Ночью, в пасмурную погоду, а также при ветре 12 м/с и более поправка равна нулю.
P - Атмосферное давление - приведенное к уровню моря атмосферное давление.
Po - Атмосферное давление - измеренное на уровне метеостанции атмосферное давление.
Tmin - Минимальная температура - минимум температуры воздуха на высоте 2 м над землей.
Tmax - Максимальная температура - максимум температуры воздуха на высоте 2 м над землей.
R - Количество осадков - Количество выпавших осадков за период времени, мм. При наведении курсора мыши на число - период времени, за который выпало указанное количество осадков.
R24 - Количество осадков - Количество выпавших осадков за 24 часа, мм.
S - Снежный покров - Высота снежного покрова, см. При наведении курсора мыши на число - состояние снежного покрова и степень покрытия местности в баллах.